カタログに戻る

METEOR 3-5

運用中気象PO
NORAD 21655·PAYLOAD·🇷🇺 Russia

打ち上げ Aug 15, 1991 から Plesetsk Cosmodrome

Loading…

次のパス (今後24時間)

TLE

最新Source: Space-Track

元期: Sep 13, 2026, 23:51 UTC

1 21655U 91056A   26256.99381175 -.00000145  00000-0 -40721-3 0  9993
2 21655  82.5516  76.6065 0012231 275.7122  84.2606 13.17161040686261

AllMySatでMETEOR 3-5をリアルタイム追跡

Download on the App Store